BOBCAT-1 (46922 NORAD) Tracking and Keplerian Element Data
This shows tracking and keplerian element data for the satellite.
Feedback or suggestion? Click here.
Element | Value |
Catalog | 46922 |
Name | BOBCAT-1 |
Epoch Orbit | 1088 |
Epoch Day | 14.38794359 |
Epoch Year | 2021 |
RAAN | 22.4827 |
Inclination | 51.6438 |
Eccentricity | 8.44E-05 |
Argument of Perigee | 207.1278 |
Mean Anonmoly | 152.9668 |
Mean Motion | 15.51935583 |
Decay Rate | 6.705E-05 |
L1 | 1 46922U 98067RS 21014.38794359 .00006705 00000-0 11716-3 0 9996 |
L2 | 2 46922 51.6438 22.4827 0000844 207.1278 152.9668 15.51935583 10889 |
Live tracking and technical data element details for BOBCAT-1 (NORAD 46922). BOBCAT-1 can be tracked NOW for your location showing map with azimuth and elevation plus other details from your city location.
Track the satellite on the map from your city or location and see movement details for azimuth, elevation, latitude, longitude, range, height, and movement on the map or in text.
IsCatalogInMostPopularTable: catalog: 46922, numindb: 22
Update: records affected: 1
GetName: 46922 BOBCAT-1
Hit Count: updated at: Fri, 15 Jan 2021 23:17:44 GMT